DateTimeUTC,F1_A11,F1_S11,BsB_S11,BsG_S11,BsR_S11,BbsB_S11,BbsG_S11,BbsR_S11,BaB_A11,BaG_A11,BaR_A11,T_S11,U_S11,P_S11,T1_A11
2020-01-09T00:00:00Z,00000380,21000600,,,,,,,,,,20.8,00.0,0605.1,30.7
2020-01-09T00:01:00Z,00000380,21000600,,,,,,,,,,20.9,00.0,0605.0,30.6
2020-01-09T00:02:00Z,00000380,21000600,,,,,,,,,,20.9,00.0,0605.0,30.6
2020-01-09T00:03:00Z,00000380,61000600,,,,,,,,,,20.9,00.0,0605.0,30.6
2020-01-09T00:04:00Z,00000380,41000600,0000.82,0001.48,0000.51,0000.48,-000.01,-000.04,0000.20,0000.05,0000.05,20.8,00.0,0606.1,30.6
2020-01-09T00:05:00Z,00000380,01000600,0001.99,0001.43,0000.68,0000.36,0000.08,0000.12,0000.02,0000.18,-000.05,20.8,00.0,0606.2,30.6
2020-01-09T00:06:00Z,00000380,01000600,0002.38,0001.40,0000.89,0000.34,0000.09,0000.13,-000.03,-000.11,0000.02,20.8,00.0,0605.8,30.6
2020-01-09T00:07:00Z,00000380,01000600,0002.76,0001.37,0000.49,0000.34,0000.28,0000.40,0000.09,-000.19,-000.11,20.7,00.0,0606.1,30.6
2020-01-09T00:08:00Z,00000380,01000600,0002.02,0001.36,0000.79,0000.25,0000.10,-000.30,-000.00,0000.20,0000.17,20.7,00.0,0606.3,30.6
2020-01-09T00:09:00Z,00000380,01000600,0001.25,0000.51,0000.38,0000.22,-000.15,-000.12,0000.21,0000.14,0000.11,20.7,00.0,0606.2,30.6
2020-01-09T00:10:00Z,00000380,01000600,0001.20,0000.42,0000.37,0000.18,-000.29,0000.50,0000.21,0000.16,0000.23,20.7,00.0,0606.0,30.7
2020-01-09T00:11:00Z,00000380,01000600,0000.83,0000.88,0000.51,0000.99,-000.20,0000.14,0000.18,0000.29,0000.07,20.7,00.0,0606.3,30.6
2020-01-09T00:12:00Z,00000380,01000600,0000.55,0000.66,0000.82,0000.22,0000.01,0000.51,0000.01,0000.15,0000.08,20.7,00.0,0606.2,30.6
2020-01-09T00:13:00Z,00000380,01000600,0001.60,0000.81,0000.75,0001.45,0000.20,0000.43,0000.22,0000.02,0000.11,20.7,00.0,0606.3,30.6
2020-01-09T00:14:00Z,00000380,01000600,0002.53,0001.34,0000.95,0000.06,0000.33,0000.14,-000.08,0000.09,0000.14,20.8,00.0,0606.1,30.6
2020-01-09T00:15:00Z,00000380,01000600,0001.15,0001.04,0000.69,0000.41,-000.39,-000.06,0000.19,0000.03,0000.07,20.8,00.0,0606.2,30.6
2020-01-09T00:16:00Z,00000380,01000600,0001.80,0001.20,0000.15,0001.17,-000.04,-000.33,0000.08,0000.30,-000.03,20.8,00.0,0606.4,30.6
2020-01-09T00:17:00Z,00000380,01000600,0001.55,0001.08,0000.57,0000.06,0000.15,0000.11,0000.20,-000.06,0000.15,20.8,00.0,0606.3,30.6
2020-01-09T00:18:00Z,00000380,01010600,0001.03,0001.02,0000.80,0000.53,-000.05,-000.02,0000.01,-000.03,-000.09,20.8,00.0,0606.1,30.6
2020-01-09T00:19:00Z,00000380,01000600,0001.30,0001.59,0000.39,0000.34,-000.08,-000.05,-000.04,0000.12,0000.18,20.8,00.0,0606.4,30.5
2020-01-09T00:20:00Z,00000380,01000600,0002.12,0000.92,0000.55,0001.65,-000.61,0000.06,0000.14,0000.09,-000.10,20.8,00.0,0606.3,30.6
2020-01-09T00:21:00Z,00000380,01000600,0001.77,0001.27,0000.75,0001.01,0000.12,0000.31,0000.14,-000.01,0000.01,20.8,00.0,0606.3,30.6
2020-01-09T00:22:00Z,00000380,01000600,0000.42,0000.97,0000.82,0000.17,0000.43,0000.02,-000.13,-000.05,0000.02,20.8,00.0,0606.4,30.6
2020-01-09T00:23:00Z,00000380,01000600,0001.16,0001.62,0000.73,0000.58,-000.34,0000.47,0000.11,-000.05,0000.07,20.7,00.0,0606.4,30.6
2020-01-09T00:24:00Z,00000380,01000600,0001.63,0001.07,0000.25,0000.78,0000.05,0000.24,0000.14,0000.18,0000.06,20.7,00.0,0606.3,30.6
2020-01-09T00:25:00Z,00000380,01000600,0002.46,0000.93,0000.20,0001.04,0000.07,0000.28,0000.14,0000.25,0000.16,20.7,00.0,0606.5,30.6
2020-01-09T00:26:00Z,00000380,01000600,0000.78,0000.48,0000.64,0000.14,-000.02,0000.29,0000.19,0000.22,0000.29,20.7,00.0,0606.2,30.6
2020-01-09T00:27:00Z,00000380,01000600,0001.39,0001.47,0000.71,0000.55,0000.29,0000.25,0000.02,0000.17,0000.01,20.7,00.0,0606.1,30.6
2020-01-09T00:28:00Z,00000380,01000600,0001.66,0000.73,0000.55,0001.39,0000.49,0000.31,0000.12,-000.13,-000.08,20.7,00.0,0606.3,30.5
2020-01-09T00:29:00Z,00000380,01000600,0002.48,0001.38,0000.14,-000.06,0000.28,-000.08,-000.03,0000.07,0000.11,20.7,00.0,0606.5,30.5
2020-01-09T00:30:00Z,00000380,01000600,0001.54,-000.03,0000.71,0000.42,-000.12,-000.13,0000.02,0000.01,-000.00,20.7,00.0,0606.5,30.5
2020-01-09T00:31:00Z,00000380,01000600,0000.98,0000.71,0000.12,0000.50,0000.08,-000.04,0000.26,0000.01,0000.07,20.7,00.0,0606.5,30.5
2020-01-09T00:32:00Z,00000380,01000600,-000.36,0001.02,0000.66,-000.10,-000.11,0000.24,-000.14,-000.09,-000.29,20.6,00.0,0606.6,30.5
2020-01-09T00:33:00Z,00000380,01000600,0001.99,0000.97,0000.91,0000.42,0000.24,0000.21,0000.07,0000.23,0000.22,20.5,00.0,0606.4,30.5
2020-01-09T00:34:00Z,00000380,01000600,0002.54,0001.61,0000.56,0001.55,0000.16,-000.04,0000.07,-000.13,-000.10,20.5,00.0,0606.5,30.5
2020-01-09T00:35:00Z,00000380,01000600,0002.27,0001.05,0000.59,-000.22,-000.25,-000.24,0000.05,0000.12,0000.03,20.5,00.0,0606.7,30.5
2020-01-09T00:36:00Z,00000380,01000600,0001.73,0000.76,0000.38,0000.95,-000.11,-000.13,0000.10,0000.05,0000.15,20.4,00.0,0606.3,30.5
2020-01-09T00:37:00Z,00000380,01000600,0000.41,0000.68,0001.34,0001.38,0000.29,0000.43,0000.10,0000.15,0000.09,20.4,00.0,0606.6,30.6
2020-01-09T00:38:00Z,00000380,01000600,0001.08,0001.22,0000.34,0000.15,0000.25,0000.29,0000.02,-000.02,0000.11,20.3,00.0,0606.6,30.6
2020-01-09T00:39:00Z,00000380,01000600,0000.66,0001.09,0001.10,0000.58,-000.02,0000.25,0000.13,0000.12,0000.16,20.3,00.0,0606.7,30.6
2020-01-09T00:40:00Z,00000380,01000600,0000.89,0001.26,0000.60,0000.42,0000.03,-000.25,0000.22,0000.23,0000.08,20.4,00.0,0606.9,30.6
2020-01-09T00:41:00Z,00000380,01000600,0002.38,0001.16,0001.04,0000.22,0000.02,-000.01,0000.20,0000.24,0000.12,20.4,00.0,0606.6,30.6
2020-01-09T00:42:00Z,00000380,01000600,0002.63,0001.54,0001.04,0000.35,-000.35,-000.06,0000.08,0000.10,0000.17,20.4,00.0,0606.8,30.7
2020-01-09T00:43:00Z,00000380,01000600,0001.33,0001.46,0000.52,-000.63,-000.51,0000.25,0000.16,0000.11,0000.05,20.5,00.0,0606.8,30.7
2020-01-09T00:44:00Z,00000380,01000600,0002.16,0000.87,0000.48,0001.13,0000.27,0000.13,-000.04,0000.17,0000.01,20.5,00.0,0606.7,30.7
2020-01-09T00:45:00Z,00000380,01000600,0001.53,0001.29,0000.98,0000.33,-000.06,-000.19,0000.17,0000.09,0000.21,20.6,00.0,0606.5,30.7
2020-01-09T00:46:00Z,00000380,01000600,0000.75,0001.06,0000.51,0000.03,-000.14,0000.33,-000.05,0000.01,0000.05,20.6,00.0,0606.9,30.7
2020-01-09T00:47:00Z,00000380,01000600,0001.07,0001.12,0000.17,0000.73,0000.20,-000.05,0000.19,0000.12,-000.15,20.6,00.0,0606.9,30.7
2020-01-09T00:48:00Z,00000380,01000600,0001.58,0001.39,0000.69,0000.20,0000.17,0000.28,-000.14,-000.04,0000.13,20.6,00.0,0606.8,30.7
2020-01-09T00:49:00Z,00000380,01000600,0000.64,0001.09,0000.51,0000.68,0000.08,-000.00,0000.12,0000.11,0000.03,20.7,00.0,0606.9,30.7
2020-01-09T00:50:00Z,00000380,01000600,0001.17,0000.86,0000.84,0000.62,0000.27,0000.41,0000.14,0000.05,0000.02,20.6,00.0,0607.0,30.7
2020-01-09T00:51:00Z,00000380,01000600,0002.66,0001.11,0000.83,0000.84,-000.14,-000.13,0000.08,-000.15,0000.09,20.7,00.0,0606.9,30.7
2020-01-09T00:52:00Z,00000380,01000600,0001.57,0001.24,0001.33,0000.01,-000.25,0000.18,0000.05,0000.29,0000.05,20.6,00.0,0606.8,30.7
2020-01-09T00:53:00Z,00000380,01000600,0001.51,0000.70,0001.11,0000.52,0000.07,0000.15,0000.14,-000.07,0000.13,20.6,00.0,0606.9,30.7
2020-01-09T00:54:00Z,00000380,01000600,0001.46,0001.12,0000.50,-000.28,0000.45,0000.47,0000.01,0000.16,-000.06,20.6,00.0,0607.0,30.7
2020-01-09T00:55:00Z,00000380,01000600,0001.71,0000.32,0000.64,0000.63,0000.04,0000.35,0000.10,-000.03,0000.08,20.5,00.0,0606.9,30.7
2020-01-09T00:56:00Z,00000380,01000600,0000.82,0001.01,0001.55,0000.50,0000.11,-000.07,0000.05,0000.09,-000.17,20.5,00.0,0606.8,30.7
2020-01-09T00:57:00Z,00000380,41000600,,,,,,,,,,20.6,00.0,0606.5,30.6
2020-01-09T00:58:00Z,00000380,61000600,,,,,,,,,,20.6,00.0,0605.9,30.6
2020-01-09T00:59:00Z,00000380,21000600,,,,,,,,,,20.7,00.0,0606.0,30.6
2020-01-09T01:00:00Z,00000380,21000600,,,,,,,,,,20.7,00.0,0606.0,30.6
2020-01-09T01:01:00Z,00000380,21000600,,,,,,,,,,20.7,00.0,0606.0,30.6
2020-01-09T01:02:00Z,00000380,21000600,,,,,,,,,,20.7,00.0,0605.9,30.6
2020-01-09T01:03:00Z,00000380,61000600,,,,,,,,,,20.7,00.0,0605.9,30.7
2020-01-09T01:04:00Z,00000380,41000600,0002.11,0000.90,0000.07,0000.20,-000.08,0000.13,0000.10,0000.10,-000.10,20.5,00.0,0607.1,30.7
2020-01-09T01:05:00Z,00000380,01000600,0001.86,0000.95,0001.07,0000.66,-000.25,0000.46,0000.09,0000.19,0000.16,20.5,00.0,0607.1,30.7
2020-01-09T01:06:00Z,00000380,01000600,0003.04,0000.76,0000.47,0001.22,0000.04,0000.07,-000.06,0000.11,-000.01,20.4,00.0,0607.3,30.7
2020-01-09T01:07:00Z,00000380,01000600,0001.58,0001.43,0000.85,-000.05,-000.08,0000.03,0000.03,-000.33,-000.09,20.4,00.0,0607.3,30.7
2020-01-09T01:08:00Z,00000380,01000600,0001.42,0000.42,0000.61,0001.81,0000.38,0000.16,0000.11,0000.10,0000.21,20.4,00.0,0607.1,30.7
2020-01-09T01:09:00Z,00000380,01000600,0000.99,0001.34,0001.18,0000.85,-000.13,0000.17,0000.22,0000.29,0000.27,20.4,00.0,0607.1,30.7
2020-01-09T01:10:00Z,00000380,01000600,0002.71,0001.38,0001.04,0000.05,-000.02,-000.10,0000.23,0000.25,0000.23,20.4,00.0,0607.1,30.7
2020-01-09T01:11:00Z,00000380,01000600,0001.72,0000.80,0001.35,0000.42,-000.01,0000.10,0000.27,0000.20,0000.22,20.4,00.0,0607.1,30.7
2020-01-09T01:12:00Z,00000380,01000600,0001.16,0000.69,0000.88,0001.24,-000.05,-000.01,-000.04,0000.22,-000.08,20.5,00.0,0607.3,30.7
2020-01-09T01:13:00Z,00000380,01000600,0001.87,0000.66,0000.66,0001.42,0000.51,-000.40,0000.04,0000.05,0000.07,20.6,00.0,0607.4,30.7
2020-01-09T01:14:00Z,00000380,01000600,0002.00,0001.30,0000.79,-000.67,0000.12,-000.28,0000.16,0000.27,0000.20,20.6,00.0,0607.4,30.8
2020-01-09T01:15:00Z,00000380,01000600,0000.72,0001.67,0000.48,0000.28,-000.21,-000.08,0000.23,0000.21,0000.15,20.7,00.0,0607.3,30.8
2020-01-09T01:16:00Z,00000380,01000600,0001.25,0001.15,0000.61,-000.45,0000.08,-000.13,-000.04,-000.20,0000.04,20.8,00.0,0607.4,30.8
2020-01-09T01:17:00Z,00000380,01000600,0001.36,0000.95,0000.43,0000.96,-000.08,-000.42,0000.22,0000.19,-000.02,20.8,00.0,0607.5,30.8
2020-01-09T01:18:00Z,00000380,01000600,0001.49,0000.26,0000.84,0000.45,-000.25,-000.06,-000.16,0000.12,-000.10,20.9,00.0,0607.4,30.8
2020-01-09T01:19:00Z,00000380,01000600,0001.40,0000.48,0000.81,0000.42,-000.03,-000.17,0000.19,-000.03,0000.08,20.9,00.0,0607.5,30.8
2020-01-09T01:20:00Z,00000380,01000600,0000.52,0001.24,0000.51,-000.06,0000.19,0000.13,0000.00,0000.13,-000.05,20.9,00.0,0607.4,30.8
2020-01-09T01:21:00Z,00000380,01000600,0002.17,0001.14,0001.17,0000.39,-000.30,-000.31,0000.18,0000.06,0000.22,20.9,00.0,0607.4,30.8
2020-01-09T01:22:00Z,00000380,01000600,0002.41,0000.99,0001.10,-000.27,-000.28,-000.18,-000.01,0000.02,0000.05,20.9,00.0,0607.3,30.8
2020-01-09T01:23:00Z,00000380,01000600,0001.23,0000.80,0000.46,-000.39,0000.10,-000.25,0000.07,0000.19,0000.16,20.9,00.0,0607.3,30.8
2020-01-09T01:24:00Z,00000380,01000600,0000.98,0001.11,0000.53,0000.54,0000.14,-000.26,0000.02,-000.04,-000.15,20.9,00.0,0607.4,30.8
2020-01-09T01:25:00Z,00000380,01000600,0001.30,0000.67,0000.53,0000.35,0000.19,0000.04,0000.22,0000.05,0000.09,20.9,00.0,0607.1,30.8
2020-01-09T01:26:00Z,00000380,01000600,-000.42,0000.66,0000.81,0000.77,-000.01,-000.37,-000.05,0000.05,0000.12,20.9,00.0,0607.3,30.8
2020-01-09T01:27:00Z,00000380,01000600,0001.33,0000.38,0001.14,0000.28,0000.07,-000.08,0000.15,0000.08,-000.06,20.9,00.0,0607.3,30.8
2020-01-09T01:28:00Z,00000380,01000600,0000.95,0000.90,0000.91,-000.44,0000.04,-000.13,0000.20,0000.16,0000.10,20.9,00.0,0607.1,30.8
2020-01-09T01:29:00Z,00000380,01000600,0001.03,0001.03,0001.15,0000.24,-000.06,0000.35,-000.08,0000.00,0000.00,20.9,00.0,0607.2,30.8
2020-01-09T01:30:00Z,00000380,01000600,0001.80,0000.33,0000.55,0000.56,0000.18,-000.17,0000.09,0000.10,0000.08,20.9,00.0,0607.0,30.8
2020-01-09T01:31:00Z,00000380,01000600,0001.61,0001.48,0000.53,-000.07,0000.03,0000.07,0000.24,0000.02,-000.03,20.9,00.0,0607.0,30.8
2020-01-09T01:32:00Z,00000380,01000600,0001.73,0001.31,0000.27,-000.24,-000.18,0000.11,0000.02,0000.04,0000.05,20.9,00.0,0607.1,30.8
2020-01-09T01:33:00Z,00000380,01000600,0001.71,0001.01,0000.40,0000.01,-000.16,-000.33,0000.03,0000.22,0000.19,20.9,00.0,0607.1,30.8
2020-01-09T01:34:00Z,00000380,01000600,0000.20,0000.50,0000.61,0000.24,0000.00,-000.22,-000.09,-000.02,0000.00,20.9,00.0,0607.1,30.8
2020-01-09T01:35:00Z,00000380,01000600,0001.34,0000.75,0000.51,0001.58,0000.28,-000.16,0000.17,0000.08,0000.12,20.9,00.0,0607.0,30.8
2020-01-09T01:36:00Z,00000380,01000600,0001.37,0000.92,0000.57,-000.40,-000.21,0000.00,0000.10,0000.11,0000.07,20.9,00.0,0607.0,30.7
2020-01-09T01:37:00Z,00000380,01000600,0002.22,0000.55,0000.31,-000.01,-000.34,-000.21,-000.07,-000.18,-000.11,20.9,00.0,0606.9,30.7
2020-01-09T01:38:00Z,00000380,01000600,0001.24,0001.23,0000.81,0000.57,0000.03,-000.10,0000.14,0000.18,0000.05,20.9,00.0,0606.8,30.7
2020-01-09T01:39:00Z,00000380,01000600,0000.49,0000.48,0000.56,0000.51,-000.45,-000.35,0000.20,0000.00,0000.09,20.9,00.0,0607.0,30.7
2020-01-09T01:40:00Z,00000380,01000600,0001.85,0000.81,0000.37,0000.74,-000.11,-000.16,0000.04,0000.27,0000.18,20.9,00.0,0606.8,30.7
2020-01-09T01:41:00Z,00000380,01000600,0000.52,0000.92,0000.94,0000.19,-000.31,-000.05,0000.18,0000.16,-000.00,21.0,00.0,0606.9,30.8
2020-01-09T01:42:00Z,00000380,01000600,0001.81,0001.56,0000.68,0000.01,0000.10,-000.17,-000.09,-000.20,0000.14,21.0,00.0,0606.9,30.8
2020-01-09T01:43:00Z,00000380,01000600,0001.22,0000.46,0000.47,0000.66,-000.03,0000.15,0000.11,0000.24,-000.14,21.0,00.0,0607.0,30.8
2020-01-09T01:44:00Z,00000380,01000600,0001.60,0000.57,0001.04,0001.04,0000.28,0000.28,0000.11,0000.17,0000.26,21.0,00.0,0607.1,30.8
2020-01-09T01:45:00Z,00000380,01000600,0000.98,0001.56,0000.45,0000.83,0000.25,-000.22,0000.05,-000.14,-000.02,21.0,00.0,0607.1,30.8
2020-01-09T01:46:00Z,00000380,01000600,0001.92,0000.44,0000.40,-000.37,-000.53,-000.12,0000.10,0000.09,0000.03,21.0,00.0,0607.2,30.8
2020-01-09T01:47:00Z,00000380,01000600,0001.20,0000.50,0000.50,0001.54,-000.06,0000.21,-000.05,-000.03,-000.07,21.0,00.0,0607.0,30.8
2020-01-09T01:48:00Z,00000380,01000600,0000.89,0000.81,0000.39,0000.19,0000.01,-000.13,0000.09,0000.17,0000.11,21.0,00.0,0607.0,30.8
2020-01-09T01:49:00Z,00000380,01000600,0001.30,-000.12,0000.90,0000.24,-000.22,-000.25,0000.08,-000.01,-000.00,21.0,00.0,0607.2,30.8
2020-01-09T01:50:00Z,00000380,01000600,0000.91,0000.77,0000.66,0000.35,-000.10,-000.14,0000.02,0000.02,0000.03,21.0,00.0,0607.3,30.8
2020-01-09T01:51:00Z,00000380,01000600,0001.42,0000.87,0000.65,0000.35,0000.21,-000.07,0000.03,0000.21,0000.12,21.0,00.0,0607.3,30.8
2020-01-09T01:52:00Z,00000380,01000600,0000.07,0000.86,0000.90,-000.08,-000.07,-000.18,-000.00,-000.14,-000.16,21.0,00.0,0607.3,30.7
2020-01-09T01:53:00Z,00000380,01000600,0001.16,0000.36,0000.61,0000.64,0000.42,-000.31,0000.07,0000.04,0000.13,21.0,00.0,0607.3,30.7
2020-01-09T01:54:00Z,00000380,01000600,0001.41,0000.77,0000.70,0000.28,-000.28,-000.44,0000.22,0000.30,0000.11,21.0,00.0,0607.2,30.7
2020-01-09T01:55:00Z,00000380,01000600,0000.33,0000.41,0001.07,0000.81,0000.54,0000.03,0000.04,0000.01,0000.07,21.0,00.0,0607.3,30.8
2020-01-09T01:56:00Z,00000380,01000600,-001.01,0000.98,0000.88,-000.16,-000.00,-000.17,0000.05,-000.07,0000.09,21.0,00.0,0607.4,30.8
2020-01-09T01:57:00Z,00000380,41000600,,,,,,,,,,21.1,00.0,0607.1,30.8
2020-01-09T01:58:00Z,00000380,61000600,,,,,,,,,,21.1,00.0,0606.3,30.7
2020-01-09T01:59:00Z,00000380,21000600,,,,,,,,,,21.2,00.0,0606.2,30.7
2020-01-09T02:00:00Z,00000380,21000600,,,,,,,,,,21.2,00.0,0606.1,30.7
2020-01-09T02:01:00Z,00000380,21000600,,,,,,,,,,21.2,00.0,0606.1,30.6
2020-01-09T02:02:00Z,00000380,21000600,,,,,,,,,,21.2,00.0,0606.1,30.6
2020-01-09T02:03:00Z,00000380,61000600,,,,,,,,,,21.2,00.0,0606.1,30.6
2020-01-09T02:04:00Z,00000380,41000600,0001.55,0000.52,0000.90,0000.25,-000.14,0000.59,-000.05,-000.11,-000.22,20.8,00.0,0607.1,30.6
2020-01-09T02:05:00Z,00000380,01000600,0000.71,-000.16,0000.54,0001.13,0000.18,0000.49,0000.07,-000.05,0000.18,20.7,00.0,0607.2,30.5
2020-01-09T02:06:00Z,00000380,01000600,0001.09,0000.50,0000.35,-000.20,0000.26,0000.28,0000.08,0000.05,-000.05,20.7,00.0,0606.8,30.5
2020-01-09T02:07:00Z,00000380,01000600,-000.03,-000.03,-000.18,-000.59,0000.34,0000.58,0000.16,0000.15,0000.26,20.6,00.0,0607.0,30.5
2020-01-09T02:08:00Z,00000380,01000600,-000.13,0000.03,0000.12,0001.15,-000.00,-000.00,0000.00,0000.24,-000.01,20.5,00.0,0607.0,30.5
2020-01-09T02:09:00Z,00000380,01000600,0001.84,0000.77,0000.31,0000.05,0000.55,0000.35,0000.27,0000.06,0000.16,20.5,00.0,0607.0,30.5
2020-01-09T02:10:00Z,00000380,01000600,0001.59,0000.65,0000.39,-000.32,0000.46,0000.36,0000.10,0000.23,0000.15,20.5,00.0,0607.1,30.5
2020-01-09T02:11:00Z,00000380,01000600,0001.51,-000.04,0000.06,-000.48,0000.19,0000.51,0000.23,0000.28,0000.07,20.5,00.0,0606.8,30.5
2020-01-09T02:12:00Z,00000380,01000600,-000.25,0000.24,0000.77,0000.27,0000.21,0000.42,-000.01,0000.06,0000.15,20.5,00.0,0607.0,30.5
2020-01-09T02:13:00Z,00000380,01000600,0000.29,0000.59,0000.23,-001.48,-000.19,0000.64,-000.02,0000.04,-000.04,20.5,00.0,0607.1,30.5
2020-01-09T02:14:00Z,00000380,01000600,0000.37,0000.55,0000.63,-000.56,-000.17,0000.30,0000.07,-000.09,-000.02,20.6,00.0,0607.3,30.6
2020-01-09T02:15:00Z,00000380,01000600,0001.18,-000.01,0000.07,-000.21,-000.25,-000.28,0000.05,-000.01,0000.03,20.6,00.0,0607.1,30.6
2020-01-09T02:16:00Z,00000380,01000600,0001.28,0000.14,0000.09,0000.02,0000.48,0000.30,-000.09,0000.03,0000.02,20.5,00.0,0607.2,30.6
2020-01-09T02:17:00Z,00000380,01000600,0002.24,0000.96,0000.50,-000.16,-000.14,-000.24,-000.11,-000.23,-000.20,20.5,00.0,0607.0,30.6
2020-01-09T02:18:00Z,00000380,01000600,0000.55,0000.40,-000.03,-001.12,0000.24,0000.41,0000.02,0000.10,0000.07,20.5,00.0,0607.0,30.6
2020-01-09T02:19:00Z,00000380,01000600,0001.08,0000.11,0000.45,-000.15,0000.03,0000.19,0000.18,0000.15,0000.11,20.4,00.0,0607.0,30.6
2020-01-09T02:20:00Z,00000380,01000600,0000.12,0000.57,0000.50,-000.43,0000.42,0000.29,0000.05,0000.28,0000.13,20.4,00.0,0606.8,30.6
2020-01-09T02:21:00Z,00000380,01000600,0001.50,0000.00,0000.37,0000.18,0000.56,-000.05,-000.04,-000.18,-000.18,20.4,00.0,0606.8,30.6
2020-01-09T02:22:00Z,00000380,01000600,0000.51,0000.08,0000.55,-000.06,0000.02,-000.04,-000.07,-000.12,-000.02,20.4,00.0,0606.7,30.6
2020-01-09T02:23:00Z,00000380,01000600,0001.74,0000.28,0000.20,-000.16,-000.02,0000.31,0000.10,0000.18,0000.16,20.4,00.0,0606.7,30.6
2020-01-09T02:24:00Z,00000380,01000600,0000.77,0000.23,0000.83,-000.04,-000.03,0000.32,0000.23,0000.22,0000.19,20.3,00.0,0606.5,30.6
2020-01-09T02:25:00Z,00000380,01000600,0001.50,0000.42,0000.56,-000.83,0000.47,0000.27,0000.08,-000.03,0000.12,20.4,00.0,0606.9,30.6
2020-01-09T02:26:00Z,00000380,01000600,0000.04,-000.13,0000.50,-000.68,0000.23,0000.17,0000.19,0000.29,0000.08,20.4,00.0,0607.1,30.7
2020-01-09T02:27:00Z,00000380,01000600,0001.31,0000.20,0000.21,-000.40,0000.39,0000.12,-000.14,-000.11,0000.00,20.4,00.0,0606.8,30.7
2020-01-09T02:28:00Z,00000380,01000600,0000.57,0000.91,0000.14,-000.21,-000.01,-000.49,0000.16,0000.03,0000.09,20.5,00.0,0606.9,30.7
2020-01-09T02:29:00Z,00000380,01000600,0000.05,0000.05,0000.63,-000.65,-000.15,0000.47,-000.08,0000.12,0000.02,20.6,00.0,0607.1,30.7
2020-01-09T02:30:00Z,00000380,01000600,0002.11,0000.41,0000.61,-000.14,-000.22,0000.36,0000.29,0000.18,0000.17,20.6,00.0,0606.7,30.7
2020-01-09T02:31:00Z,00000380,01000600,0001.07,0000.34,0000.86,-000.26,0000.37,0000.34,-000.08,0000.11,0000.07,20.6,00.0,0606.7,30.7
2020-01-09T02:32:00Z,00000380,01000600,0000.38,-000.52,0000.21,-000.20,-000.58,0000.32,0000.09,0000.16,0000.02,20.7,00.0,0607.1,30.8
2020-01-09T02:33:00Z,00000380,01000600,0001.36,0000.62,0000.39,-000.47,0000.05,0000.05,0000.06,-000.13,-000.06,20.7,00.0,0607.1,30.8
2020-01-09T02:34:00Z,00000380,01000600,0000.43,0000.24,0000.69,-000.02,0000.07,0000.53,-000.18,-000.01,-000.14,20.7,00.0,0607.0,30.7
2020-01-09T02:35:00Z,00000380,01000600,0001.15,0000.84,0000.22,-000.59,-000.15,0000.88,-000.00,-000.01,0000.09,20.7,00.0,0607.0,30.7
2020-01-09T02:36:00Z,00000380,01000600,0000.57,0000.17,0000.08,-000.21,0000.27,0000.32,-000.13,-000.25,-000.18,20.6,00.0,0606.8,30.6
2020-01-09T02:37:00Z,00000380,01000600,0000.09,0000.47,-000.15,-000.99,0000.51,-000.05,0000.10,-000.02,-000.07,20.6,00.0,0607.0,30.5
2020-01-09T02:38:00Z,00000380,01000600,0001.40,0000.19,0000.08,-000.94,0000.10,0000.30,0000.11,0000.07,0000.18,20.5,00.0,0607.1,30.5
2020-01-09T02:39:00Z,00000380,01000600,0001.39,0000.23,-000.07,-001.24,0000.21,0000.35,-000.11,0000.15,-000.04,20.5,00.0,0606.9,30.6
2020-01-09T02:40:00Z,00000380,01000600,0000.89,-000.18,0000.50,-001.44,-000.13,0000.73,0000.23,0000.14,0000.09,20.5,00.0,0607.0,30.6
2020-01-09T02:41:00Z,00000380,01000600,0000.51,-000.04,0000.31,0000.64,0000.09,0000.49,0000.04,0000.05,0000.13,20.5,00.0,0606.9,30.6
2020-01-09T02:42:00Z,00000380,01000600,0000.02,-000.04,0000.55,-000.76,0000.43,0000.49,-000.03,-000.07,-000.08,20.5,00.0,0607.0,30.5
2020-01-09T02:43:00Z,00000380,01000600,0000.59,0000.18,0000.71,0000.67,0000.24,0000.70,-000.00,-000.18,-000.08,20.5,00.0,0606.9,30.4
2020-01-09T02:44:00Z,00000380,01000600,0000.70,0000.11,0000.14,0000.03,-000.14,0000.51,-000.11,-000.17,-000.15,20.4,00.0,0607.1,30.4
2020-01-09T02:45:00Z,00000380,01000600,0001.04,0000.28,0000.21,-000.55,0000.28,0000.44,-000.04,0000.12,-000.03,20.4,00.0,0606.8,30.5
2020-01-09T02:46:00Z,00000380,01000600,0000.34,0000.03,-000.04,-000.08,0000.07,-000.10,0000.04,0000.17,0000.31,20.4,00.0,0606.7,30.5
2020-01-09T02:47:00Z,00000380,01000600,0000.20,0000.77,0000.03,-000.78,0000.18,0000.21,0000.16,-000.01,-000.08,20.3,00.0,0606.7,30.5
2020-01-09T02:48:00Z,00000380,01000600,-000.49,-000.20,0000.38,-000.51,0000.26,0000.85,-000.09,-000.12,-000.16,20.3,00.0,0606.8,30.5
2020-01-09T02:49:00Z,00000380,01000600,0001.14,0000.07,0000.44,0000.31,0000.08,0000.19,0000.06,0000.09,0000.12,20.3,00.0,0606.8,30.6
2020-01-09T02:50:00Z,00000380,01000600,0001.86,0000.29,0000.04,-000.02,0000.37,-000.45,0000.03,0000.15,0000.09,20.3,00.0,0606.9,30.6
2020-01-09T02:51:00Z,00000380,01000600,-000.30,0000.08,0000.45,-000.26,0000.20,0000.00,-000.06,0000.07,0000.01,20.2,00.0,0606.8,30.6
2020-01-09T02:52:00Z,00000380,01000600,0000.64,0000.29,0000.36,-000.15,0000.21,0000.07,-000.01,-000.21,-000.10,20.3,00.0,0606.7,30.6
2020-01-09T02:53:00Z,00000380,01000600,0000.76,0000.07,0000.48,-000.41,0000.02,0000.36,0000.03,0000.15,0000.12,20.2,00.0,0606.8,30.6
2020-01-09T02:54:00Z,00000380,01000600,0000.36,0000.48,0000.49,-000.22,-000.08,0000.46,0000.25,0000.07,0000.13,20.2,00.0,0606.8,30.6
2020-01-09T02:55:00Z,00000380,01000600,0000.91,0000.60,0000.62,0000.86,0000.25,0000.65,0000.02,0000.16,0000.14,20.3,00.0,0606.9,30.6
2020-01-09T02:56:00Z,00000380,01000600,0000.90,0000.41,0000.67,-000.24,0000.04,-000.06,0000.10,0000.45,0000.21,20.4,00.0,0607.1,30.7
2020-01-09T02:57:00Z,00000380,41000600,,,,,,,,,,20.4,00.0,0607.2,30.7
2020-01-09T02:58:00Z,00000380,61000600,,,,,,,,,,20.6,00.0,0606.3,30.7
2020-01-09T02:59:00Z,00000380,21000600,,,,,,,,,,20.7,00.0,0606.4,30.8
2020-01-09T03:00:00Z,00000380,21000600,,,,,,,,,,20.8,00.0,0606.4,30.8
2020-01-09T03:01:00Z,00000380,21000600,,,,,,,,,,20.8,00.0,0606.5,30.8
2020-01-09T03:02:00Z,00000380,21000600,,,,,,,,,,20.9,00.0,0606.4,30.9
2020-01-09T03:03:00Z,00000380,61000600,,,,,,,,,,20.9,00.0,0606.4,30.9
2020-01-09T03:04:00Z,00000380,41000600,0000.57,0000.23,0000.54,-001.01,-000.27,-000.09,-000.07,0000.26,0000.02,21.2,00.0,0607.2,30.9
2020-01-09T03:05:00Z,00000380,01000600,-000.38,0000.14,0000.31,0000.26,-000.08,-000.17,-000.07,-000.35,-000.25,21.3,00.0,0607.6,30.9
2020-01-09T03:06:00Z,00000380,01000600,-000.17,0000.33,0000.42,0001.05,-000.07,-000.25,-000.07,0000.03,0000.15,21.3,00.0,0607.5,30.9
2020-01-09T03:07:00Z,00000380,01000600,0001.18,0000.07,-000.25,-000.38,0000.28,-000.27,0000.02,-000.04,-000.07,21.3,00.0,0607.7,30.9
2020-01-09T03:08:00Z,00000380,01000600,0001.26,0000.55,-000.09,0000.28,-000.01,0000.18,0000.05,-000.01,0000.01,21.3,00.0,0607.8,30.8
2020-01-09T03:09:00Z,00000380,01000600,0000.22,-000.17,-000.18,-000.73,0000.26,-000.43,0000.17,0000.03,0000.07,21.3,00.0,0607.9,30.8
2020-01-09T03:10:00Z,00000380,01000600,0000.31,0000.35,0000.21,0000.58,0000.10,0000.09,-000.01,-000.06,-000.13,21.3,00.0,0607.7,30.8